www.pogodaiklimat.ru

Погода и климат >> Архив погоды >> Вьетнам >> Шонла


ПОГОДА в Шонле

  • Прогноз погоды в Шонле
  • Монитор погоды в Шонле

АРХИВ ПОГОДЫ в Шонле

Время (UTC), дата Ветер
(напр.,м/с)
 
Видим.   Явления Облачность Т
(С)
Тd
(С)
f
(%)
Тe
(С)
Тes
(С)
Комфортность P
(гПа)
Po
(гПа)
Тmin
(С)
Tmax
(С)
R
(мм)
R24
(мм)
S
(см)
00 9.06 штиль 0 20 км 8/3 600 м
[Cu Sc Cs]
+24.8 +23.7 94 +34 +36 очень
душно
1006.8 931.6 +23.4
03 9.06 С 1 20 км 8/8 600 м
[Cu med, cong]
+29.4 +25.0 77 +42 +46 опасность
перегрева
1005.4 931.7
06 9.06 СЗ 1 20 км 6/6 600 м
[Cu med, cong]
+31.6 +24.0 64 +43 +53 опасность
перегрева
1002.3 929.1
09 9.06 СЗ 1 20 км 6/6 600 м
[Cu med, cong]
+32.9 +22.6 55 +43 +46 опасность
перегрева
1000.1 927.3
12 9.06 штиль 0 20 км 3/3 600 м
[Cu med, cong]
+30.2 +23.5 67 +41 +41 опасность
перегрева
1000.5 927.2 +33.5
15 9.06 штиль 0 20 км ясно +27.5 +23.2 77 +37 +37 очень
душно
1002.4 928.2
18 9.06 штиль 0 20 км 3/3 600 м
[Cu med, cong]
+25.5 +23.6 89 +35 +35 очень
душно
1003.1 928.4
21 9.06 штиль 0 20 км 4/4 600 м
[Cu med, cong]
+24.5 +23.0 91 +32 +32 очень
душно
1003.9 928.7
00 10.06 штиль 0 20 км 6/6 600 м
[Cu med, cong]
+25.7 +24.1 91 +36 +37 очень
душно
1004.7 930.0 +24.3
03 10.06 В 1 20 км 8/3 600 м
[Cu med, cong Cs]
+30.3 +23.0 65 +40 +52 опасность
солнечного
удара
1002.5 928.8
06 10.06 С 1 20 км 8/8 600 м
[Cu med, cong]
+31.7 +23.6 62 +43 +48 опасность
перегрева
1000.1 927.3
09 10.06 С 1 20 км 8/3 600 м
[Cu med, cong Cs]
+32.3 +24.6 64 +45 +51 опасность
перегрева
998.5 925.7
12 10.06 штиль 0 20 км 3/3 600 м
[Cu med, cong]
+30.8 +23.9 67 +42 +42 опасность
перегрева
999.8 926.5 +33.9
15 10.06 штиль 0 20 км зарница 3/3 600 м
[Cb cap]
+28.2 +24.7 81 +40 +40 очень
душно
1003.0 928.8
18 10.06 штиль 0 20 км зарница 8/8 600 м
[Cb cap]
+26.5 +24.4 88 +37 +37 очень
душно
1003.2 928.5
21 10.06 СЗ 2 20 км ясно +27.1 +22.2 75 +35 +35 очень
душно
1002.6 928.4
00 11.06 штиль 0 20 км 10/10 300 м
[Cu Sc]
+26.1 +23.7 87 +36 +36 очень
душно
1004.8 930.1 +25.5
03 11.06 штиль 0 20 км 10/10 300 м
[Cu Sc]
+28.2 +24.1 78 +39 +39 очень
душно
1005.0 930.8
06 11.06 штиль 0 20 км 9/9 600 м
[Cu Sc]
+30.6 +25.6 75 +45 +48 опасность
перегрева
1002.8 929.1
09 11.06 СВ 2 20 км 6/6 600 м
[Cu Sc]
+31.5 +24.8 68 +45 +48 опасность
перегрева
999.1 926.3
12 11.06 штиль 0 20 км 8/8 600 м
[Cu Sc]
+31.5 +24.7 67 +44 +44 опасность
перегрева
1000.0 927.2 +33.2
15 11.06 штиль 0 20 км зарница 3/3 600 м
[Cb cap]
+28.3 +24.4 79 +40 +40 очень
душно
1003.8 929.6
18 11.06 штиль 0 20 км 6/6 600 м
[Cu med, cong]
+26.4 +24.5 89 +37 +37 очень
душно
1004.0 929.3
21 11.06 штиль 0 20 км 3/3 600 м
[Cu med, cong]
+27.1 +23.1 79 +36 +36 очень
душно
1002.8 928.6
00 12.06 штиль 0 20 км 8/3 600 м
[Cu med, cong Cs]
+25.8 +23.6 88 +35 +37 очень
душно
1005.6 930.9 +25.5
03 12.06 штиль 0 20 км 8/8 600 м
[Cu med, cong]
+30.6 +23.2 65 +41 +46 опасность
перегрева
1004.8 931.1
06 12.06 СЗ 2 20 км 5/5 600 м
[Cu med, cong]
+32.8 +21.8 52 +41 +52 опасность
перегрева
1002.6 929.4
09 12.06 ЮЗ 1 20 км 4/3 600 м
[Cu med, cong Cs]
+33.5 +21.2 49 +41 +47 опасность
перегрева
999.6 927.3
12 12.06 штиль 0 20 км 3/3 600 м
[Cu med, cong]
+31.5 +21.7 56 +40 +40 очень
душно
1000.8 927.6 +34.0
15 12.06 штиль 0 20 км 3/3 1500 м
[Sc]
+27.6 +22.4 73 +36 +36 очень
душно
1004.3 930.1
18 12.06 З 1 20 км 1/1 1500 м
[Sc]
+27.8 +20.3 64 +34 +34 очень
душно
1003.8 929.6
21 12.06 штиль 0 20 км 8/8 300 м
[Cu Sc]
+26.5 +21.5 74 +34 +34 очень
душно
1004.4 929.7
00 13.06 штиль 0 20 км 9/9 300 м
[Cu Sc]
+25.8 +22.2 81 +34 +34 очень
душно
1005.5 930.8 +25.2
03 13.06 С 1 20 км 8/8 600 м
[Cu med, cong]
+29.6 +22.9 67 +39 +43 очень
душно
1005.2 931.5
06 13.06 С 2 20 км 8/8 600 м
[Cu med, cong]
+31.3 +24.6 68 +44 +48 опасность
перегрева
1002.4 929.2
09 13.06 штиль 0 20 км гроза без осадков 9/9 600 м
[Cb cap]
+31.3 +23.0 61 +41 +42 опасность
перегрева
1000.0 927.2
12 13.06 штиль 0 20 км {гроза, ливн. осадки} 6/6 600 м
[Cb cap]
+25.6 +24.1 91 +35 +35 очень
душно
1003.7 929.0 +32.5 17
15 13.06 штиль 0 20 км 8/8 600 м
[Cu med, cong]
+25.4 +23.2 88 +34 +34 очень
душно
1005.3 930.6
18 13.06 штиль 0 20 км 8/8 600 м
[Cu med, cong]
+25.1 +23.5 91 +34 +34 очень
душно
1004.5 929.8
21 13.06 штиль 0 10 км слаб. ливневой дождь 10/10 300 м
[Cb cap]
+24.5 +22.4 88 +32 +32 очень
душно
1004.3 929.1
00 14.06 штиль 0 10 км в посл. час ливневой дождь 9/9
[Cb cap]
+24.6 +23.1 91 +33 +33 очень
душно
1005.1 929.9 +24.0 3
03 14.06 СВ 1 20 км {ливн. осадки} 9/9 300 м
[Cb cap]
+25.4 +23.5 89 +34 +36 очень
душно
1006.3 931.6
06 14.06 СВ 2 20 км {ливн. осадки} 9/9 300 м
[Cb cap]
+29.0 +23.0 70 +39 +41 очень
душно
1003.3 929.6 3
09 14.06 С 1 20 км 10/10 300 м
[Cb cap]
+30.4 +24.2 70 +42 +42 опасность
перегрева
1000.4 927.1
12 14.06 штиль 0 20 км 8/8 600 м
[Cu Sc]
+29.2 +21.9 65 +38 +38 очень
душно
1001.7 928.0 +31.2 3
15 14.06 штиль 0 20 км 9/9 1000 м
[Sc]
+26.3 +23.3 84 +36 +36 очень
душно
1004.7 930.0
18 14.06 штиль 0 20 км 8/8 1000 м
[Sc]
+25.2 +23.1 88 +34 +34 очень
душно
1004.6 929.9
21 14.06 штиль 0 20 км 8/8 1000 м
[Sc]
+24.6 +22.9 90 +33 +33 очень
душно
1003.9 928.7
00 15.06 штиль 0 20 км 8/8 600 м
[Cu med, cong]
+25.6 +23.2 87 +34 +35 очень
душно
1004.9 930.2 +24.4
03 15.06 З 1 20 км 10/10 300 м
[Cu Sc]
+28.2 +21.5 67 +36 +36 очень
душно
1005.5 931.3
06 15.06 С 1 20 км 10/10 600 м
[Cu Sc]
+29.2 +24.1 74 +41 +41 опасность
перегрева
1003.4 929.7
09 15.06 СВ 1 20 км 6/6 600 м
[Cu med, cong]
+30.0 +24.4 72 +42 +46 опасность
перегрева
1000.4 927.1
12 15.06 штиль 0 20 км 4/4 600 м
[Cu med, cong]
+29.3 +23.2 70 +40 +40 очень
душно
1000.5 927.2 +31.1
15 15.06 штиль 0 20 км 8/8 600 м
[Cu med, cong]
+26.5 +23.4 83 +36 +36 очень
душно
1003.7 929.0
18 15.06 штиль 0 20 км 10/10 300 м
[Cu Sc]
+25.2 +23.1 88 +34 +34 очень
душно
1003.9 929.2
21 15.06 штиль 0 20 км 10/10 300 м
[Cu Sc]
+24.4 +22.6 90 +32 +32 очень
душно
1003.4 928.2

 

Местоположение метеостанции Шонла (Вьетнам): широта 21.33 долгота 103.90 высота над уровнем моря 676 м.

В архиве по умолчанию представлена погода в Шонле за последнюю неделю. Архивные данные за месяц целиком и за предыдущие месяцы, начиная с января 2011 года, Вы можете получить, выбрав интересующий диапазон дат из раскрывающегося списка и нажав кнопку "Ввод!".


*Определитесь, кто Вы:
робот инопланетянин человек

Внимание! Время в таблицах - всемирное. Для получения местного времени необходимо прибавить поправку, которая равна 7 ч.

Смотрите также архив погоды в соседних городах и на ближайших метеорологических станциях:

Погода в Самныа (Лаос) (103 км)
Погода во Вьенгсае (Лаос) (107 км)
Погода в Шапе (Вьетнам) (113 км)
Погода в Лаокае (Вьетнам) (130 км)
Погода в Хайфоне (Вьетнам) (198 км)
Погода в Ханое (Вьетнам) (200 км)
Погода в Боуннеуа (Лаос) (210 км)
Погода в Удомсае (Лаос) (211 км)
Погода в Баккане (Вьетнам) (219 км)
Погода в Плейн оф Джарс (Лаос) (222 км)

Пояснения к столбцам:

Ветер - указаны скорость ветра в м/с - средняя за 10 мин, порывы в срок и между сроками (в фигурных скобках) и направление, откуда дует ветер: С - северный, СВ - северо-восточный, В - восточный, ЮВ - юго-восточный, Ю - южный, ЮЗ - юго-западный, З - западный, СЗ - северо-западный.
Видимость - горизонтальная дальность видимости в метрах или километрах. При видимости от 1 до 10 км при отсутствии осадков обычно наблюдается дымка, при ухудшении видимости до 1 км и менее - туман. В сухую погоду видимость может ухудшаться дымом, пылью или мглою.
Явления - указаны атмосферные явления, наблюдавшиеся в срок или в последний час перед сроком; фигурными скобками обозначены явления, наблюдавшиеся между сроками (за 1-3 часа до срока); квадратными скобками обозначены град или гололедные отложения с указанием их диаметра в мм.
Облачность - указаны через наклонную черту общая и нижняя облачность в баллах и высота нижней границы облаков в метрах; квадратными скобками обозначены формы облаков: Ci - перистые, Cs - перисто-слоистые, Cc - перисто-кучевые, Ac - высококучевые, As - высокослоистые, Sc - слоисто-кучевые, Ns - слоисто-дождевые, Cu - кучевые, Cb - кучево-дождевые. Подробнее классификацию облаков см. в Атласе облаков (PDF).
T - Температура воздуха - температура, измеренная на высоте 2 м над землей.
Td - Температура точки росы - температура, при понижении до которой содержащийся в воздухе водяной пар достигнет насыщения.
f - Относительная влажность воздуха - влажноcть воздуха, измеренная на высоте 2 м над землей.
Te - Эффективная температура - температура, которую ощущает одетый по сезону человек в тени. Характеристика душности погоды. При расчете учитывается влияние влажности воздуха и скорости ветра на теплоощущения человека.
Tes - Эффективная температура на солнце - температура, которую ощущает человек, с поправкой на солнечный нагрев. Характеристика знойности погоды. Зависит от высоты солнца над горизонтом, облачности и скорости ветра. Ночью, в пасмурную погоду, а также при ветре 12 м/с и более поправка равна нулю.
P - Атмосферное давление - приведенное к уровню моря атмосферное давление.
Po - Атмосферное давление - измеренное на уровне метеостанции атмосферное давление.
Tmin - Минимальная температура - минимум температуры воздуха на высоте 2 м над землей.
Tmax - Максимальная температура - максимум температуры воздуха на высоте 2 м над землей.
R - Количество осадков - Количество выпавших осадков за период времени, мм. При наведении курсора мыши на число - период времени, за который выпало указанное количество осадков.
R24 - Количество осадков - Количество выпавших осадков за 24 часа, мм.
S - Снежный покров - Высота снежного покрова, см. При наведении курсора мыши на число - состояние снежного покрова и степень покрытия местности в баллах.